User: anonymous   Login
Location: Mentone
(34.5413°N, 85.5351°W)
Time: 23:02:53
(UTC-05:00)
Language:

Tiros 1 despin weight - Orbit

View from above orbital plane
View from above orbital plane
View from above satellite
View from above satellite

Ground track
Ground track

The orbit data is extracted from the following two-line orbital elements,

1 00115U 60002D   14304.78737662  .00003495  00000-0  46859-3 0  5041
2 00115 048.1655 069.2691 0036585 198.4827 281.9495 14.81025560907889
Epoch (UTC): 31 October 2014 18:53:49
Eccentricity: 0.0036585
inclination: 48.1655°
perigee height: 600 km
apogee height: 652 km
right ascension of ascending node: 69.2691°
argument of perigee: 198.4827°
revolutions per day: 14.81025560
mean anomaly at epoch: 281.9495°
orbit number at epoch: 90788

The dashed part of the orbit path shows where the satellite is in the earth's shadow,  

DLR